Time,TemperatureF,DewpointF,PressureIn,WindDirection,WindDirectionDegrees,WindSpeedMPH,WindSpeedGustMPH,Humidity,HourlyPrecipIn,Conditions,Clouds,dailyrainin,SolarRadiationWatts/m^2,SoftwareType,DateUTC
2013-12-02 00:12:00,33.0,23.0,-100.00,West,271,0.0,0.0,66,0.00,,,0.00,0.000000,,2013-12-02 07:12:00,
2013-12-02 00:21:00,33.0,23.0,-100.00,West,271,0.0,0.0,66,0.00,,,0.00,0.000000,,2013-12-02 07:21:00,
2013-12-02 00:32:00,33.0,23.0,-100.00,West,271,0.0,0.0,66,0.00,,,0.00,0.000000,,2013-12-02 07:32:00,
2013-12-02 01:12:00,34.0,25.0,-100.00,West,270,0.0,0.0,68,0.00,,,0.00,0.000000,,2013-12-02 08:12:00,
2013-12-02 01:22:00,34.0,25.0,-100.00,West,270,0.0,0.0,68,0.00,,,0.00,0.000000,,2013-12-02 08:22:00,
2013-12-02 01:32:00,34.0,25.0,-100.00,West,270,0.0,0.0,68,0.00,,,0.00,0.000000,,2013-12-02 08:32:00,
2013-12-02 02:11:00,33.0,24.0,-100.00,West,260,0.0,0.0,69,0.00,,,0.00,0.000000,,2013-12-02 09:11:00,
2013-12-02 02:22:00,33.0,24.0,-100.00,West,260,0.0,0.0,69,0.00,,,0.00,0.000000,,2013-12-02 09:22:00,
2013-12-02 02:32:00,33.0,24.0,-100.00,West,260,0.0,0.0,69,0.00,,,0.00,0.000000,,2013-12-02 09:32:00,
2013-12-02 03:12:00,32.0,24.0,-100.00,WSW,251,4.0,9.0,72,0.00,,,0.00,0.000000,,2013-12-02 10:12:00,
2013-12-02 03:23:00,32.0,24.0,-100.00,WSW,251,4.0,9.0,72,0.00,,,0.00,0.000000,,2013-12-02 10:23:00,
2013-12-02 03:33:00,32.0,24.0,-100.00,WSW,251,4.0,9.0,72,0.00,,,0.00,0.000000,,2013-12-02 10:33:00,
2013-12-02 04:12:00,30.0,22.0,-100.00,WSW,241,3.0,8.0,71,0.00,,,0.00,0.000000,,2013-12-02 11:12:00,
2013-12-02 04:22:00,30.0,22.0,-100.00,WSW,241,3.0,8.0,71,0.00,,,0.00,0.000000,,2013-12-02 11:22:00,
2013-12-02 04:32:00,30.0,22.0,-100.00,WSW,241,3.0,8.0,71,0.00,,,0.00,0.000000,,2013-12-02 11:32:00,
2013-12-02 05:12:00,31.0,23.0,-100.00,WSW,250,4.0,8.0,73,0.00,,,0.00,0.000000,,2013-12-02 12:12:00,
2013-12-02 05:22:00,31.0,23.0,-100.00,WSW,250,4.0,8.0,73,0.00,,,0.00,0.000000,,2013-12-02 12:22:00,
2013-12-02 05:32:00,31.0,23.0,-100.00,WSW,250,4.0,8.0,73,0.00,,,0.00,0.000000,,2013-12-02 12:32:00,
2013-12-02 06:12:00,31.0,24.0,-100.00,SW,232,0.0,8.0,74,0.00,,,0.00,0.000000,,2013-12-02 13:12:00,
2013-12-02 06:22:00,31.0,24.0,-100.00,SW,232,0.0,8.0,74,0.00,,,0.00,0.000000,,2013-12-02 13:22:00,
2013-12-02 06:32:00,31.0,24.0,-100.00,SW,232,0.0,8.0,74,0.00,,,0.00,0.000000,,2013-12-02 13:32:00,
2013-12-02 07:11:00,30.0,23.0,-100.00,SW,225,3.0,6.0,76,0.00,,,0.00,0.000000,,2013-12-02 14:11:00,
2013-12-02 07:22:00,30.0,23.0,-100.00,SW,225,3.0,6.0,76,0.00,,,0.00,0.000000,,2013-12-02 14:22:00,
2013-12-02 07:32:00,30.0,23.0,-100.00,SW,225,3.0,6.0,76,0.00,,,0.00,0.000000,,2013-12-02 14:32:00,
2013-12-02 08:12:00,30.0,25.0,-100.00,ENE,66,1.0,5.0,81,0.00,,,0.00,5.000000,,2013-12-02 15:12:00,
2013-12-02 08:21:00,30.0,25.0,-100.00,ENE,66,1.0,5.0,81,0.00,,,0.00,5.000000,,2013-12-02 15:21:00,
2013-12-02 08:34:00,30.0,25.0,-100.00,ENE,66,1.0,5.0,81,0.00,,,0.00,5.000000,,2013-12-02 15:34:00,
2013-12-02 09:13:00,30.0,26.0,-100.00,South,181,2.0,5.0,85,0.00,,,0.00,46.000000,,2013-12-02 16:13:00,
2013-12-02 09:23:00,30.0,26.0,-100.00,South,181,2.0,5.0,85,0.00,,,0.00,46.000000,,2013-12-02 16:23:00,
2013-12-02 09:33:00,30.0,26.0,-100.00,South,181,2.0,5.0,85,0.00,,,0.00,46.000000,,2013-12-02 16:33:00,
2013-12-02 10:12:00,32.0,27.0,-100.00,South,186,3.0,4.0,82,0.00,,,0.00,80.000000,,2013-12-02 17:12:00,
2013-12-02 10:22:00,32.0,27.0,-100.00,South,186,3.0,4.0,82,0.00,,,0.00,80.000000,,2013-12-02 17:22:00,
2013-12-02 10:33:00,32.0,27.0,-100.00,South,186,3.0,4.0,82,0.00,,,0.00,80.000000,,2013-12-02 17:33:00,
2013-12-02 11:12:00,37.0,27.0,-100.00,SW,225,5.0,12.0,68,0.00,,,0.00,228.000000,,2013-12-02 18:12:00,
2013-12-02 11:22:00,37.0,27.0,-100.00,SW,225,5.0,12.0,68,0.00,,,0.00,228.000000,,2013-12-02 18:22:00,
2013-12-02 11:32:00,37.0,27.0,-100.00,SW,225,5.0,12.0,68,0.00,,,0.00,228.000000,,2013-12-02 18:32:00,
2013-12-02 12:12:00,40.0,26.0,-100.00,WSW,256,6.0,12.0,58,0.00,,,0.00,276.000000,,2013-12-02 19:12:00,
2013-12-02 12:22:00,40.0,26.0,-100.00,WSW,256,6.0,12.0,58,0.00,,,0.00,276.000000,,2013-12-02 19:22:00,
2013-12-02 12:32:00,40.0,26.0,-100.00,WSW,256,6.0,12.0,58,0.00,,,0.00,276.000000,,2013-12-02 19:32:00,
2013-12-02 13:11:00,42.0,26.0,-100.00,West,280,7.0,16.0,53,0.00,,,0.00,442.000000,,2013-12-02 20:11:00,
2013-12-02 13:21:00,42.0,26.0,-100.00,West,280,7.0,16.0,53,0.00,,,0.00,442.000000,,2013-12-02 20:21:00,
2013-12-02 13:32:00,42.0,26.0,-100.00,West,280,7.0,16.0,53,0.00,,,0.00,442.000000,,2013-12-02 20:32:00,
2013-12-02 14:11:00,43.0,27.0,-100.00,West,265,5.0,16.0,52,0.00,,,0.00,352.000000,,2013-12-02 21:11:00,
2013-12-02 14:21:00,43.0,27.0,-100.00,West,265,5.0,16.0,52,0.00,,,0.00,352.000000,,2013-12-02 21:21:00,
2013-12-02 14:34:00,43.0,27.0,-100.00,West,265,5.0,16.0,52,0.00,,,0.00,352.000000,,2013-12-02 21:34:00,
2013-12-02 15:13:00,41.0,26.0,-100.00,West,272,5.0,11.0,55,0.00,,,0.00,173.000000,,2013-12-02 22:13:00,
2013-12-02 15:23:00,41.0,26.0,-100.00,West,272,5.0,11.0,55,0.00,,,0.00,173.000000,,2013-12-02 22:23:00,
2013-12-02 15:33:00,41.0,26.0,-100.00,West,272,5.0,11.0,55,0.00,,,0.00,173.000000,,2013-12-02 22:33:00,
2013-12-02 16:12:00,38.0,25.0,-100.00,SW,229,4.0,9.0,59,0.00,,,0.00,42.000000,,2013-12-02 23:12:00,
2013-12-02 16:22:00,38.0,25.0,-100.00,SW,229,4.0,9.0,59,0.00,,,0.00,42.000000,,2013-12-02 23:22:00,
2013-12-02 16:33:00,38.0,25.0,-100.00,SW,229,4.0,9.0,59,0.00,,,0.00,42.000000,,2013-12-02 23:33:00,
2013-12-02 17:12:00,34.0,24.0,-100.00,ENE,61,0.0,6.0,66,0.00,,,0.00,7.000000,,2013-12-03 00:12:00,
2013-12-02 17:21:00,34.0,24.0,-100.00,ENE,61,0.0,6.0,66,0.00,,,0.00,7.000000,,2013-12-03 00:21:00,
2013-12-02 17:32:00,34.0,24.0,-100.00,ENE,61,0.0,6.0,66,0.00,,,0.00,7.000000,,2013-12-03 00:32:00,
2013-12-02 18:11:00,28.0,22.0,-100.00,NNE,16,2.0,4.0,78,0.00,,,0.00,0.000000,,2013-12-03 01:11:00,
2013-12-02 18:21:00,28.0,22.0,-100.00,NNE,16,2.0,4.0,78,0.00,,,0.00,0.000000,,2013-12-03 01:21:00,
2013-12-02 18:32:00,28.0,22.0,-100.00,NNE,16,2.0,4.0,78,0.00,,,0.00,0.000000,,2013-12-03 01:32:00,
2013-12-02 19:11:00,26.0,21.0,-100.00,NNE,21,1.0,3.0,81,0.00,,,0.00,0.000000,,2013-12-03 02:11:00,
2013-12-02 19:21:00,26.0,21.0,-100.00,NNE,21,1.0,3.0,81,0.00,,,0.00,0.000000,,2013-12-03 02:21:00,
2013-12-02 19:32:00,26.0,21.0,-100.00,NNE,21,1.0,3.0,81,0.00,,,0.00,0.000000,,2013-12-03 02:32:00,
2013-12-02 20:11:00,31.0,26.0,-100.00,SE,133,2.0,6.0,80,0.00,,,0.00,0.000000,,2013-12-03 03:11:00,
2013-12-02 20:21:00,31.0,26.0,-100.00,SE,133,2.0,6.0,80,0.00,,,0.00,0.000000,,2013-12-03 03:21:00,
2013-12-02 20:33:00,31.0,26.0,-100.00,SE,133,2.0,6.0,80,0.00,,,0.00,0.000000,,2013-12-03 03:33:00,
2013-12-02 21:13:00,31.0,28.0,-100.00,SE,138,3.0,7.0,88,0.00,,,0.00,0.000000,,2013-12-03 04:13:00,
2013-12-02 21:23:00,31.0,28.0,-100.00,SE,138,3.0,7.0,88,0.00,,,0.00,0.000000,,2013-12-03 04:23:00,
2013-12-02 21:33:00,31.0,28.0,-100.00,SE,138,3.0,7.0,88,0.00,,,0.00,0.000000,,2013-12-03 04:33:00,
2013-12-02 22:12:00,31.0,28.0,-100.00,SSE,149,3.0,7.0,87,0.00,,,0.00,0.000000,,2013-12-03 05:12:00,
2013-12-02 22:22:00,31.0,28.0,-100.00,SSE,149,3.0,7.0,87,0.00,,,0.00,0.000000,,2013-12-03 05:22:00,
2013-12-02 22:33:00,31.0,28.0,-100.00,SSE,149,3.0,7.0,87,0.00,,,0.00,0.000000,,2013-12-03 05:33:00,
2013-12-02 23:12:00,31.0,27.0,-100.00,SE,145,0.0,10.0,84,0.00,,,0.00,0.000000,,2013-12-03 06:12:00,
2013-12-02 23:22:00,31.0,27.0,-100.00,SE,145,0.0,10.0,84,0.00,,,0.00,0.000000,,2013-12-03 06:22:00,
2013-12-02 23:32:00,31.0,27.0,-100.00,SE,145,0.0,10.0,84,0.00,,,0.00,0.000000,,2013-12-03 06:32:00,